• In Latvia
  • List of Countries
  • For 7 days
  • Water Temperature
  • Satellite Maps
  • Weather Map
  • Weather Widgets
  • user-avatar
    Login

    Hourly Weather San Luis

    Today, 20 January, Saturday

    Time Temperature Precipitation Wind Pressure Humidity
    00:00 +26°C° 0 mm 4 mps 698 mmHg 29%
    01:00 +26°C° 0 mm 4 mps 698 mmHg 29%
    02:00 +25°C° 0 mm 5 mps 698 mmHg 28%
    03:00 +25°C° 0 mm 5 mps 698 mmHg 30%
    04:00 +25°C° 0 mm 5 mps 697 mmHg 31%
    05:00 +23°C° 0 mm 5 mps 697 mmHg 32%
    06:00 +26°C° 0 mm 6 mps 698 mmHg 33%
    07:00 +27°C° 0 mm 7 mps 698 mmHg 34%
    08:00 +28°C° 0 mm 8 mps 698 mmHg 32%
    09:00 +30°C° 0 mm 7 mps 698 mmHg 30%
    10:00 +32°C° 0 mm 6 mps 698 mmHg 28%
    11:00 +33°C° 0 mm 5 mps 698 mmHg 26%
    12:00 +34°C° 0 mm 5 mps 698 mmHg 26%
    13:00 +34°C° 0 mm 4 mps 697 mmHg 25%
    14:00 +34°C° 0 mm 4 mps 697 mmHg 25%
    15:00 +34°C° 0 mm 4 mps 696 mmHg 26%
    16:00 +33°C° 0 mm 3 mps 696 mmHg 27%
    17:00 +33°C° 0 mm 3 mps 695 mmHg 29%
    18:00 +31°C° 0.1 mm 3 mps 695 mmHg 31%
    19:00 +29°C° 0.1 mm 4 mps 695 mmHg 34%
    20:00 +28°C° 0.1 mm 4 mps 695 mmHg 37%
    21:00 +27°C° 0.1 mm 4 mps 696 mmHg 40%
    22:00 +26°C° 0.1 mm 5 mps 696 mmHg 43%
    23:00 +25°C° 0.1 mm 5 mps 696 mmHg 46%

    Tomorrow, 21 January, Sunday

    Time Temperature Precipitation Wind Pressure Humidity
    00:00 +25°C° 0 mm 5 mps 696 mmHg 48%
    01:00 +24°C° 0 mm 6 mps 696 mmHg 49%
    02:00 +23°C° 0 mm 6 mps 696 mmHg 51%
    03:00 +23°C° 0 mm 6 mps 695 mmHg 54%
    04:00 +23°C° 0 mm 6 mps 695 mmHg 57%
    05:00 +22°C° 0 mm 7 mps 695 mmHg 60%
    06:00 +23°C° 0 mm 6 mps 695 mmHg 55%
    07:00 +26°C° 0 mm 6 mps 696 mmHg 50%
    08:00 +27°C° 0 mm 6 mps 696 mmHg 44%
    09:00 +29°C° 0 mm 6 mps 696 mmHg 39%
    10:00 +30°C° 0 mm 5 mps 696 mmHg 34%
    11:00 +33°C° 0 mm 4 mps 696 mmHg 29%
    12:00 +33°C° 0 mm 4 mps 696 mmHg 28%
    13:00 +34°C° 0 mm 4 mps 695 mmHg 27%
    14:00 +34°C° 0 mm 4 mps 695 mmHg 26%
    15:00 +34°C° 0 mm 4 mps 694 mmHg 26%
    16:00 +34°C° 0 mm 3 mps 694 mmHg 27%
    17:00 +34°C° 0 mm 3 mps 693 mmHg 27%
    18:00 +32°C° 0 mm 4 mps 693 mmHg 31%
    19:00 +30°C° 0 mm 4 mps 693 mmHg 34%
    20:00 +28°C° 0 mm 4 mps 693 mmHg 38%
    21:00 +27°C° 0.1 mm 4 mps 693 mmHg 41%
    22:00 +27°C° 0.1 mm 4 mps 693 mmHg 43%
    23:00 +26°C° 0.1 mm 3 mps 694 mmHg 46%

    Day after tomorrow, 22 January, Monday

    Time Temperature Precipitation Wind Pressure Humidity
    00:00 +25°C° 0.3 mm 3 mps 694 mmHg 47%
    01:00 +25°C° 0.3 mm 3 mps 693 mmHg 48%
    02:00 +25°C° 0.3 mm 3 mps 693 mmHg 49%
    03:00 +24°C° 0.1 mm 3 mps 693 mmHg 50%
    04:00 +24°C° 0.1 mm 2 mps 693 mmHg 51%
    05:00 +23°C° 0.1 mm 2 mps 693 mmHg 53%
    06:00 +25°C° 0.1 mm 3 mps 693 mmHg 48%
    07:00 +26°C° 0.1 mm 4 mps 694 mmHg 44%
    08:00 +28°C° 0.1 mm 5 mps 694 mmHg 39%
    09:00 +29°C° 0 mm 5 mps 694 mmHg 35%
    10:00 +32°C° 0 mm 5 mps 694 mmHg 31%
    11:00 +34°C° 0 mm 5 mps 694 mmHg 27%
    12:00 +34°C° 0 mm 4 mps 694 mmHg 26%
    13:00 +35°C° 0 mm 4 mps 693 mmHg 26%
    14:00 +35°C° 0 mm 3 mps 692 mmHg 25%
    15:00 +35°C° 0 mm 3 mps 692 mmHg 26%
    16:00 +35°C° 0 mm 3 mps 691 mmHg 26%
    17:00 +35°C° 0 mm 2 mps 691 mmHg 26%
    18:00 +33°C° 0 mm 3 mps 691 mmHg 29%
    19:00 +31°C° 0 mm 3 mps 691 mmHg 32%
    20:00 +29°C° 0 mm 4 mps 691 mmHg 35%
    21:00 +28°C° 0.4 mm 4 mps 691 mmHg 39%
    22:00 +27°C° 0.4 mm 4 mps 692 mmHg 43%
    23:00 +25°C° 0.4 mm 4 mps 692 mmHg 47%

    23 January, Tuesday

    Time Temperature Precipitation Wind Pressure Humidity
    00:00 +25°C° 0.3 mm 3 mps 692 mmHg 47%
    01:00 +25°C° 0.3 mm 3 mps 692 mmHg 48%
    02:00 +25°C° 0.3 mm 3 mps 692 mmHg 49%
    03:00 +24°C° 0.3 mm 3 mps 692 mmHg 52%
    04:00 +24°C° 0.3 mm 3 mps 692 mmHg 56%
    05:00 +23°C° 0.3 mm 2 mps 692 mmHg 59%
    06:00 +24°C° 0.2 mm 2 mps 693 mmHg 56%
    07:00 +25°C° 0.2 mm 3 mps 693 mmHg 53%
    08:00 +26°C° 0.2 mm 3 mps 694 mmHg 50%
    09:00 +28°C° 0 mm 3 mps 694 mmHg 44%
    10:00 +30°C° 0 mm 3 mps 695 mmHg 38%
    11:00 +33°C° 0 mm 4 mps 695 mmHg 32%
    12:00 +34°C° 0 mm 3 mps 694 mmHg 30%
    13:00 +35°C° 0 mm 3 mps 694 mmHg 28%
    14:00 +36°C° 0 mm 2 mps 693 mmHg 26%
    15:00 +35°C° 0.2 mm 3 mps 693 mmHg 28%
    16:00 +35°C° 0.2 mm 3 mps 693 mmHg 31%
    17:00 +34°C° 0.2 mm 4 mps 692 mmHg 33%
    18:00 +32°C° 0.1 mm 4 mps 692 mmHg 37%
    19:00 +30°C° 0.1 mm 5 mps 693 mmHg 42%
    20:00 +28°C° 0.1 mm 5 mps 693 mmHg 46%
    21:00 +27°C° 0.3 mm 5 mps 693 mmHg 48%
    22:00 +26°C° 0.3 mm 6 mps 694 mmHg 50%
    23:00 +24°C° 0.3 mm 6 mps 694 mmHg 53%

    24 January, Wednesday

    Time Temperature Precipitation Wind Pressure Humidity
    00:00 +25°C° 0 mm 5 mps 694 mmHg 52%
    01:00 +25°C° 0 mm 4 mps 694 mmHg 50%
    02:00 +25°C° 0 mm 4 mps 694 mmHg 49%
    03:00 +23°C° 0.2 mm 4 mps 695 mmHg 50%
    04:00 +23°C° 0.2 mm 5 mps 695 mmHg 50%
    05:00 +22°C° 0.2 mm 5 mps 696 mmHg 50%
    06:00 +22°C° 0.3 mm 5 mps 697 mmHg 51%
    07:00 +22°C° 0.3 mm 5 mps 698 mmHg 52%
    08:00 +22°C° 0.3 mm 5 mps 699 mmHg 53%
    09:00 +22°C° 0.2 mm 6 mps 699 mmHg 52%
    10:00 +22°C° 0.2 mm 6 mps 700 mmHg 51%
    11:00 +23°C° 0.2 mm 6 mps 700 mmHg 50%
    12:00 +24°C° 0.3 mm 7 mps 700 mmHg 47%
    13:00 +26°C° 0.3 mm 7 mps 700 mmHg 44%
    14:00 +27°C° 0.3 mm 8 mps 700 mmHg 40%
    15:00 +28°C° 0.2 mm 8 mps 699 mmHg 38%
    16:00 +28°C° 0.2 mm 8 mps 699 mmHg 36%
    17:00 +28°C° 0.2 mm 8 mps 699 mmHg 34%
    18:00 +27°C° 0 mm 7 mps 699 mmHg 37%
    19:00 +26°C° 0 mm 6 mps 699 mmHg 39%
    20:00 +23°C° 0 mm 5 mps 699 mmHg 41%
    21:00 +23°C° 0 mm 5 mps 699 mmHg 40%
    22:00 +22°C° 0 mm 5 mps 700 mmHg 38%
    23:00 +22°C° 0 mm 5 mps 700 mmHg 37%

    25 January, Thursday

    Time Temperature Precipitation Wind Pressure Humidity
    00:00 +21°C° 0 mm 5 mps 700 mmHg 36%
    01:00 +21°C° 0 mm 6 mps 699 mmHg 35%
    02:00 +21°C° 0 mm 6 mps 699 mmHg 34%
    03:00 +20°C° 0 mm 6 mps 699 mmHg 35%
    04:00 +19°C° 0 mm 6 mps 698 mmHg 37%
    05:00 +19°C° 0 mm 5 mps 698 mmHg 38%
    06:00 +20°C° 0.1 mm 6 mps 698 mmHg 42%
    07:00 +22°C° 0.1 mm 6 mps 699 mmHg 46%
    08:00 +23°C° 0.1 mm 6 mps 699 mmHg 50%
    09:00 +26°C° 0.1 mm 6 mps 699 mmHg 46%
    10:00 +28°C° 0.1 mm 5 mps 699 mmHg 42%
    11:00 +30°C° 0.1 mm 5 mps 699 mmHg 39%
    12:00 +32°C° 0.5 mm 4 mps 699 mmHg 38%
    13:00 +32°C° 0.5 mm 4 mps 698 mmHg 37%
    14:00 +32°C° 0.5 mm 4 mps 697 mmHg 37%
    15:00 +32°C° 0.3 mm 4 mps 697 mmHg 38%
    16:00 +32°C° 0.3 mm 4 mps 696 mmHg 39%
    17:00 +30°C° 0.3 mm 4 mps 696 mmHg 40%
    18:00 +29°C° 0 mm 4 mps 696 mmHg 44%
    19:00 +28°C° 0 mm 4 mps 696 mmHg 48%
    20:00 +27°C° 0 mm 4 mps 695 mmHg 52%
    21:00 +26°C° 0.1 mm 4 mps 696 mmHg 56%
    22:00 +25°C° 0.1 mm 4 mps 696 mmHg 59%
    23:00 +25°C° 0.1 mm 4 mps 696 mmHg 62%
    Show more